WX4BK-13 Weather Reports


time (UTC)temp
F
wind
direction
speed
knots
gust
knots
rain 1hr
in
rain 24hr
in
rain mn
in
humidity
%
barometer
mb
20260906113925 69 0 0.0 0.0 0.00 0.00 0.00 9 1013.1
20260906113625 69 0 0.0 0.0 0.00 0.00 0.00 9 1013.1
20260906113325 69 0 0.0 0.0 0.00 0.00 0.00 9 1013.1
20260906113025 70 0 0.0 0.0 0.00 0.00 0.00 9 1013.0
20260906112725 70 0 0.0 0.0 0.00 0.00 0.00 9 1013.0
20260906112425 70 0 0.0 0.0 0.00 0.00 0.00 9 1013.1
20260906112124 70 0 0.0 0.0 0.00 0.00 0.00 9 1013.1
20260906111525 70 0 0.0 0.0 0.00 0.00 0.00 9 1013.0
20260906111224 70 0 0.0 0.0 0.00 0.00 0.00 9 1013.0
20260906110924 70 0 0.0 0.0 0.00 0.00 0.00 9 1013.0
20260906110624 70 0 0.0 0.0 0.00 0.00 0.00 9 1012.9
20260906110324 70 0 0.0 0.0 0.00 0.00 0.00 9 1012.9
20260906105724 70 0 0.0 0.0 0.00 0.00 0.00 9 1012.9
20260906105424 70 0 0.0 0.0 0.00 0.00 0.00 9 1012.9
20260906104824 70 0 0.0 0.0 0.00 0.00 0.00 9 1012.8
20260906104524 70 0 0.0 0.0 0.00 0.00 0.00 9 1012.9
20260906104224 70 0 0.0 0.0 0.00 0.00 0.00 9 1012.9
20260906103924 70 0 0.0 0.0 0.00 0.00 0.00 9 1012.9
20260906103624 70 0 0.0 0.0 0.00 0.00 0.00 9 1012.8
20260906103324 70 0 0.0 0.0 0.00 0.00 0.00 9 1012.8
20260906103024 70 0 0.0 0.0 0.00 0.00 0.00 9 1012.8
20260906102724 70 0 0.0 0.0 0.00 0.00 0.00 9 1012.8
20260906102424 70 0 0.0 0.0 0.00 0.00 0.00 9 1012.7
20260906102124 70 0 0.0 0.0 0.00 0.00 0.00 9 1012.7
20260906101524 70 0 0.0 0.0 0.00 0.00 0.00 9 1012.8
20260906101224 70 0 0.0 0.0 0.00 0.00 0.00 9 1012.8
20260906100924 70 0 0.0 0.0 0.00 0.00 0.00 9 1012.8
20260906100624 70 0 0.0 0.0 0.00 0.00 0.00 9 1012.8
20260906100324 70 0 0.0 0.0 0.00 0.00 0.00 9 1012.9
20260906095724 70 0 0.0 0.0 0.00 0.00 0.00 9 1012.9
20260906095424 70 0 0.0 0.0 0.00 0.00 0.00 9 1012.9
20260906094824 70 0 0.0 0.0 0.00 0.00 0.00 9 1012.8
20260906094524 70 0 0.0 0.0 0.00 0.00 0.00 9 1012.8
20260906094224 70 0 0.0 0.0 0.00 0.00 0.00 9 1012.8
20260906093924 70 6 1.7 4.3 0.00 0.00 0.00 9 1012.8
20260906093624 70 0 0.0 1.7 0.00 0.00 0.00 9 1012.8
20260906093324 70 0 0.0 0.0 0.00 0.00 0.00 9 1012.8
20260906093024 70 344 0.9 2.6 0.00 0.00 0.00 9 1012.8
20260906092724 70 337 0.9 1.7 0.00 0.00 0.00 9 1012.8
20260906092424 70 0 0.0 0.0 0.00 0.00 0.00 9 1012.7
20260906092124 70 0 0.0 0.0 0.00 0.00 0.00 9 1012.7
20260906091524 70 0 0.0 0.0 0.00 0.00 0.00 9 1012.6
20260906091224 70 0 0.0 0.0 0.00 0.00 0.00 9 1012.6
20260906090924 70 0 0.0 0.0 0.00 0.00 0.00 9 1012.6
20260906090624 70 0 0.0 0.0 0.00 0.00 0.00 9 1012.5
20260906090324 70 0 0.0 0.0 0.00 0.00 0.00 9 1012.5
20260906085724 70 0 0.0 0.0 0.00 0.00 0.00 9 1012.4
20260906085424 70 0 0.0 0.0 0.00 0.00 0.00 9 1012.3
20260906084824 70 0 0.0 0.0 0.00 0.00 0.00 9 1012.2
20260906084524 70 0 0.0 0.0 0.00 0.00 0.00 9 1012.2
20260906084224 70 0 0.0 0.0 0.00 0.00 0.00 9 1012.2
20260906083924 70 0 0.0 0.0 0.00 0.00 0.00 9 1012.2
20260906083624 70 0 0.0 0.0 0.00 0.00 0.00 9 1012.2
20260906083325 70 0 0.0 0.0 0.00 0.00 0.00 9 1012.2
20260906083025 70 0 0.0 0.0 0.00 0.00 0.00 9 1012.4
20260906082725 70 0 0.0 0.0 0.00 0.00 0.00 9 1012.4
20260906082425 70 0 0.0 0.0 0.00 0.00 0.00 9 1012.4
20260906082125 70 0 0.0 0.0 0.00 0.00 0.00 9 1012.5
20260906081525 70 0 0.0 0.0 0.00 0.00 0.00 9 1012.5
20260906081225 70 0 0.0 0.0 0.00 0.00 0.00 9 1012.5
20260906080925 70 0 0.0 0.0 0.00 0.00 0.00 9 1012.5
20260906080625 70 0 0.0 0.0 0.00 0.00 0.00 9 1012.5
20260906080325 70 0 0.0 0.0 0.00 0.00 0.00 9 1012.5
20260906075725 70 0 0.0 0.0 0.00 0.00 0.00 9 1012.4
20260906075425 70 0 0.0 0.0 0.00 0.00 0.00 9 1012.4
20260906074825 70 0 0.0 0.0 0.00 0.00 0.00 9 1012.5
20260906074525 70 0 0.0 0.0 0.00 0.00 0.00 9 1012.5
20260906074225 70 0 0.0 0.0 0.00 0.00 0.00 9 1012.4
20260906073925 70 0 0.0 0.0 0.00 0.00 0.00 9 1012.5
20260906073625 70 0 0.0 0.0 0.00 0.00 0.00 9 1012.5
20260906073325 70 0 0.0 0.0 0.00 0.00 0.00 9 1012.5
20260906073025 70 0 0.0 0.0 0.00 0.00 0.00 9 1012.4
20260906072725 70 0 0.0 0.0 0.00 0.00 0.00 9 1012.4
20260906072425 70 0 0.0 0.0 0.00 0.00 0.00 9 1012.3
20260906072125 70 0 0.0 0.0 0.00 0.00 0.00 9 1012.3
20260906071525 71 0 0.0 0.0 0.00 0.00 0.00 9 1012.4
20260906071225 71 0 0.0 0.0 0.00 0.00 0.00 9 1012.4
20260906070925 71 0 0.0 0.0 0.00 0.00 0.00 9 1012.4
20260906070625 71 0 0.0 0.0 0.00 0.00 0.00 9 1012.4
20260906070325 71 0 0.0 0.0 0.00 0.00 0.00 9 1012.3
20260906065724 71 0 0.0 0.0 0.00 0.00 0.00 9 1012.5
20260906065424 71 0 0.0 0.0 0.00 0.00 0.00 9 1012.4
20260906064824 71 0 0.0 0.0 0.00 0.00 0.00 9 1012.4
20260906064524 71 0 0.0 0.0 0.00 0.00 0.00 9 1012.4
20260906064224 71 0 0.0 0.0 0.00 0.00 0.00 9 1012.4
20260906063924 71 0 0.0 0.0 0.00 0.00 0.00 9 1012.5
20260906063624 71 0 0.0 0.0 0.00 0.00 0.00 9 1012.4
20260906063324 71 0 0.0 0.0 0.00 0.00 0.00 9 1012.4
20260906063024 71 0 0.0 0.0 0.00 0.00 0.00 9 1012.5
20260906062724 71 0 0.0 0.0 0.00 0.00 0.00 9 1012.6
20260906062424 71 0 0.0 0.0 0.00 0.00 0.00 9 1012.5
20260906062124 71 0 0.0 0.0 0.00 0.00 0.00 9 1012.5
20260906061524 71 0 0.0 0.0 0.00 0.00 0.00 9 1012.6
20260906061224 71 0 0.0 0.0 0.00 0.00 0.00 9 1012.6
20260906060925 71 0 0.0 0.0 0.00 0.00 0.00 9 1012.6
20260906060624 71 0 0.0 0.0 0.00 0.00 0.00 9 1012.6
20260906060324 71 0 0.0 0.0 0.00 0.00 0.00 9 1012.6
20260906055724 72 0 0.0 0.0 0.00 0.00 0.00 9 1012.6
20260906055424 72 0 0.0 0.0 0.00 0.00 0.00 9 1012.7
20260906054824 72 0 0.0 0.0 0.00 0.00 0.00 9 1012.6
20260906054524 72 0 0.0 0.0 0.00 0.00 0.00 9 1012.6
20260906054224 72 0 0.0 0.0 0.00 0.00 0.00 9 1012.6
20260906053924 72 0 0.0 0.0 0.00 0.00 0.00 9 1012.7
20260906053624 72 0 0.0 0.0 0.00 0.00 0.00 9 1012.7
20260906053324 72 0 0.0 0.0 0.00 0.00 0.00 9 1012.7
20260906053024 72 0 0.0 0.0 0.00 0.00 0.00 9 1012.8
20260906052724 72 0 0.0 0.0 0.00 0.00 0.00 9 1012.8
20260906052424 72 0 0.0 0.0 0.00 0.00 0.00 9 1012.8
20260906052124 72 0 0.0 0.0 0.00 0.00 0.00 9 1012.9
20260906051524 72 0 0.0 0.0 0.00 0.00 0.00 9 1013.1
20260906051224 72 0 0.0 0.0 0.00 0.00 0.00 9 1013.0
20260906050924 72 0 0.0 0.0 0.00 0.00 0.00 9 1013.0
20260906050624 72 0 0.0 0.0 0.00 0.00 0.00 9 1013.0
20260906050324 72 0 0.0 0.0 0.00 0.00 0.00 9 1013.0
20260906045724 73 0 0.0 0.0 0.00 0.00 0.00 9 1013.0
20260906045424 73 0 0.0 0.0 0.00 0.00 0.00 9 1013.0
20260906044824 73 0 0.0 0.0 0.00 0.00 0.00 9 1013.0
20260906044524 73 0 0.0 0.0 0.00 0.00 0.00 9 1013.0
20260906044224 73 0 0.0 0.0 0.00 0.00 0.00 9 1013.0
20260906043924 73 0 0.0 0.0 0.00 0.00 0.00 9 1013.1
20260906043624 73 0 0.0 0.0 0.00 0.00 0.00 9 1013.1
20260906043324 73 0 0.0 0.0 0.00 0.00 0.00 9 1013.1
20260906043024 73 0 0.0 0.0 0.00 0.00 0.00 9 1013.1
20260906042724 73 0 0.0 0.0 0.00 0.00 0.00 9 1013.1
20260906042424 73 0 0.0 0.0 0.00 0.00 0.00 9 1013.1
20260906042125 73 0 0.0 0.0 0.00 0.00 0.00 9 1013.0
20260906041525 74 0 0.0 0.0 0.00 0.00 0.00 9 1013.0
20260906041225 74 0 0.0 0.0 0.00 0.00 0.00 9 1012.9
20260906040925 74 0 0.0 0.0 0.00 0.00 0.00 9 1012.9
20260906040625 74 0 0.0 0.0 0.00 0.00 0.00 9 1012.9
20260906040325 74 0 0.0 0.0 0.00 0.00 0.00 9 1013.0
20260906035725 74 0 0.0 0.0 0.00 0.00 0.00 9 1013.1
20260906035425 74 0 0.0 0.0 0.00 0.00 0.00 9 1013.1
20260906034825 74 0 0.0 0.0 0.00 0.00 0.00 9 1013.2
20260906034525 75 0 0.0 0.0 0.00 0.00 0.00 9 1013.3
20260906034225 75 0 0.0 0.0 0.00 0.00 0.00 9 1013.1
20260906033925 75 0 0.0 0.0 0.00 0.00 0.00 9 1013.1
20260906033625 75 0 0.0 0.0 0.00 0.00 0.00 9 1013.0
20260906033325 75 0 0.0 0.0 0.00 0.00 0.00 9 1013.1
20260906033025 75 0 0.0 0.0 0.00 0.00 0.00 9 1013.0
20260906032725 75 0 0.0 0.0 0.00 0.00 0.00 9 1013.0
20260906032425 75 0 0.0 0.0 0.00 0.00 0.00 9 1013.1
20260906032125 75 0 0.0 0.0 0.00 0.00 0.00 9 1013.1
20260906031525 75 0 0.0 0.0 0.00 0.00 0.00 9 1013.2
20260906031225 75 0 0.0 0.0 0.00 0.00 0.00 9 1013.2
20260906030925 75 0 0.0 0.0 0.00 0.00 0.00 9 1013.2
20260906030625 76 0 0.0 0.0 0.00 0.00 0.00 9 1013.4
20260906030324 76 0 0.0 0.0 0.00 0.00 0.00 9 1013.3
20260906025725 76 0 0.0 0.0 0.00 0.00 0.00 9 1013.5
20260906025425 76 0 0.0 0.0 0.00 0.00 0.00 9 1013.5
20260906024825 76 0 0.0 0.0 0.00 0.00 0.00 9 1013.5
20260906024525 76 0 0.0 0.0 0.00 0.00 0.00 9 1013.4
20260906024225 76 0 0.0 0.0 0.00 0.00 0.00 9 1013.5
20260906023925 76 0 0.0 0.0 0.00 0.00 0.00 9 1013.5
20260906023624 76 0 0.0 0.0 0.00 0.00 0.00 9 1013.2
20260906023325 76 0 0.0 0.0 0.00 0.00 0.00 9 1013.1
20260906023025 77 0 0.0 0.0 0.00 0.00 0.00 9 1013.1
20260906022724 77 0 0.0 0.0 0.00 0.00 0.00 9 1013.0
20260906022424 77 0 0.0 0.0 0.00 0.00 0.00 9 1013.0
20260906022125 77 0 0.0 0.0 0.00 0.00 0.00 9 1013.1
20260906021524 77 0 0.0 0.0 0.00 0.00 0.00 9 1013.3
20260906021224 77 0 0.0 0.0 0.00 0.00 0.00 9 1013.3
20260906020924 77 0 0.0 0.9 0.00 0.00 0.00 9 1013.3
20260906020625 77 0 0.0 0.0 0.00 0.00 0.00 9 1013.4
20260906020324 77 0 0.0 0.0 0.00 0.00 0.00 9 1013.4
20260906015724 77 0 0.0 0.0 0.00 0.00 0.00 8 1013.4
20260906015424 77 0 0.0 0.0 0.00 0.00 0.00 8 1013.3
20260906014824 78 0 0.0 0.0 0.00 0.00 0.00 8 1013.1
20260906014524 78 0 0.0 0.0 0.00 0.00 0.00 8 1013.1
20260906014224 78 0 0.0 0.0 0.00 0.00 0.00 8 1012.9
20260906013924 78 0 0.0 0.0 0.00 0.00 0.00 8 1012.7
20260906013624 78 225 0.0 2.6 0.00 0.00 0.00 8 1012.5
20260906013324 78 216 0.9 1.7 0.00 0.00 0.00 8 1012.5
20260906013024 78 0 0.0 0.0 0.00 0.00 0.00 8 1012.7
20260906012724 78 0 0.0 0.0 0.00 0.00 0.00 8 1012.7
20260906012424 78 0 0.0 0.0 0.00 0.00 0.00 8 1012.7
20260906012124 78 0 0.0 0.0 0.00 0.00 0.00 8 1012.6
20260906011524 78 0 0.0 0.0 0.00 0.00 0.00 8 1012.2
20260906011224 78 0 0.0 0.0 0.00 0.00 0.00 8 1012.3
20260906010924 78 0 0.0 0.0 0.00 0.00 0.00 8 1012.4
20260906010624 78 0 0.0 0.0 0.00 0.00 0.00 8 1012.6
20260906010324 78 0 0.0 0.0 0.00 0.00 0.00 8 1012.6
20260906005724 79 0 0.0 0.0 0.00 0.00 0.00 8 1012.3
20260906005424 79 178 1.7 5.2 0.00 0.00 0.00 8 1012.2
20260906004824 79 0 0.0 0.0 0.00 0.00 0.00 8 1011.6
20260906004524 79 0 0.0 0.0 0.00 0.00 0.00 8 1011.4
20260906004224 79 0 0.0 0.0 0.00 0.00 0.00 8 1011.4
20260906003924 79 0 0.0 0.0 0.00 0.00 0.00 8 1011.3
20260906003624 79 0 0.0 0.0 0.00 0.00 0.00 8 1011.4
20260906003324 79 0 0.0 0.0 0.00 0.00 0.00 8 1011.3
20260906003024 79 0 0.0 0.0 0.00 0.00 0.00 8 1011.2
20260906002724 80 0 0.0 0.0 0.00 0.00 0.00 8 1011.1
20260906002424 80 0 0.0 0.0 0.00 0.00 0.00 8 1011.0
20260906002124 80 0 0.0 0.0 0.00 0.00 0.00 8 1010.9
20260906001524 80 0 0.0 0.0 0.00 0.00 0.00 8 1010.8
20260906001225 80 0 0.0 0.0 0.00 0.00 0.00 8 1010.8
20260906000925 81 0 0.0 0.0 0.00 0.00 0.00 8 1010.7
20260906000625 81 0 0.0 0.0 0.00 0.00 0.00 7 1010.9
20260906000326 81 0 0.0 0.0 0.00 0.00 0.00 7 1011.0
20260905235725 82 0 0.0 0.0 0.00 0.00 0.00 7 1011.0
20260905235425 82 0 0.0 0.0 0.00 0.00 0.00 7 1010.9
20260905234825 82 0 0.0 0.0 0.00 0.00 0.00 7 1010.9
20260905234525 82 0 0.0 0.0 0.00 0.00 0.00 7 1010.8
20260905234225 83 99 1.7 3.5 0.00 0.00 0.00 7 1010.6
20260905233925 83 0 0.0 0.0 0.00 0.00 0.00 7 1010.5
20260905233625 83 22 0.9 2.6 0.00 0.00 0.00 7 1010.5
20260905233325 83 78 1.7 3.5 0.00 0.00 0.00 7 1010.5
20260905233025 84 0 0.0 0.0 0.00 0.00 0.00 7 1010.5
20260905232725 84 0 0.0 0.0 0.00 0.00 0.00 7 1010.3
20260905232425 84 0 0.0 0.0 0.00 0.00 0.00 8 1010.5
20260905232125 84 0 0.0 0.0 0.00 0.00 0.00 8 1010.5
20260905231525 84 317 1.7 5.2 0.00 0.00 0.00 8 1010.5
20260905231225 85 0 0.0 0.0 0.00 0.00 0.00 7 1010.2
20260905230925 86 0 0.0 0.0 0.00 0.00 0.00 7 1010.0
20260905230625 87 0 0.0 0.0 0.00 0.00 0.00 7 1009.9
20260905230325 86 0 0.0 0.0 0.00 0.00 0.00 7 1010.0
20260905225725 87 0 0.0 0.0 0.00 0.00 0.00 7 1010.0
20260905225425 88 0 0.0 0.0 0.00 0.00 0.00 7 1009.9
20260905224825 90 0 0.0 0.0 0.00 0.00 0.00 6 1009.8
20260905224525 91 0 0.0 0.0 0.00 0.00 0.00 6 1009.8
20260905224225 92 0 0.0 0.0 0.00 0.00 0.00 6 1009.6
20260905223924 92 0 0.0 0.0 0.00 0.00 0.00 6 1009.6
20260905223624 91 0 0.0 0.0 0.00 0.00 0.00 6 1009.6
20260905223325 92 0 0.0 0.0 0.00 0.00 0.00 6 1009.5
20260905223024 94 0 0.0 0.0 0.00 0.00 0.00 5 1009.3
20260905222724 94 0 0.0 0.0 0.00 0.00 0.00 5 1009.3
20260905222425 93 0 0.0 0.0 0.00 0.00 0.00 5 1009.3
20260905222124 92 0 0.0 0.0 0.00 0.00 0.00 5 1009.3
20260905221524 90 0 0.0 0.0 0.00 0.00 0.00 5 1009.7
20260905221224 91 0 0.0 0.0 0.00 0.00 0.00 5 1009.6
20260905220924 91 0 0.0 0.0 0.00 0.00 0.00 5 1009.6
20260905220624 92 0 0.0 0.0 0.00 0.00 0.00 5 1009.6
20260905220325 92 0 0.0 0.0 0.00 0.00 0.00 5 1009.6
20260905215724 91 0 0.0 0.0 0.00 0.00 0.00 5 1009.7
20260905215425 91 0 0.0 0.0 0.00 0.00 0.00 5 1009.6
20260905214824 91 0 0.0 0.0 0.00 0.00 0.00 6 1009.5
20260905214524 90 0 0.0 0.0 0.00 0.00 0.00 6 1009.6
20260905214225 92 0 0.0 0.0 0.00 0.00 0.00 5 1009.5
20260905213925 91 166 0.9 2.6 0.00 0.00 0.00 5 1009.5
20260905213624 91 172 1.7 3.5 0.00 0.00 0.00 5 1009.6
20260905213324 92 0 0.0 0.0 0.00 0.00 0.00 5 1009.5
20260905213024 91 157 0.9 2.6 0.00 0.00 0.00 5 1009.5
20260905212724 91 178 1.7 3.5 0.00 0.00 0.00 5 1009.6
20260905212424 92 0 0.0 0.0 0.00 0.00 0.00 5 1009.5
20260905212124 91 0 0.0 0.0 0.00 0.00 0.00 5 1009.6
20260905211524 91 0 0.0 0.0 0.00 0.00 0.00 5 1009.7
20260905211224 91 0 0.0 0.0 0.00 0.00 0.00 5 1009.7
20260905210924 92 0 0.0 0.0 0.00 0.00 0.00 5 1009.7
20260905210624 91 0 0.0 0.0 0.00 0.00 0.00 5 1009.8
20260905210324 91 0 0.0 0.0 0.00 0.00 0.00 5 1009.8
20260905205724 91 0 0.0 0.0 0.00 0.00 0.00 5 1009.9
20260905205424 91 22 0.0 1.7 0.00 0.00 0.00 5 1010.0
20260905204824 91 0 0.0 0.0 0.00 0.00 0.00 5 1010.1
20260905204524 91 0 0.0 0.0 0.00 0.00 0.00 5 1010.1
20260905204224 91 0 0.0 0.0 0.00 0.00 0.00 5 1010.2
20260905203924 91 0 0.0 0.0 0.00 0.00 0.00 5 1010.2
20260905203624 91 0 0.0 0.0 0.00 0.00 0.00 5 1010.3
20260905203324 91 0 0.0 0.0 0.00 0.00 0.00 5 1010.3
20260905203024 91 146 1.7 2.6 0.00 0.00 0.00 5 1010.2
20260905202724 91 270 0.0 1.7 0.00 0.00 0.00 5 1010.2
20260905202424 90 0 0.0 1.7 0.00 0.00 0.00 5 1010.2
20260905202124 91 67 1.7 2.6 0.00 0.00 0.00 5 1010.2
20260905201524 92 0 0.0 0.0 0.00 0.00 0.00 5 1010.3
20260905201224 91 180 0.9 1.7 0.00 0.00 0.00 5 1010.3
20260905200924 91 0 0.0 0.0 0.00 0.00 0.00 5 1010.4
20260905200624 91 124 1.7 3.5 0.00 0.00 0.00 5 1010.4
20260905200325 91 270 0.9 2.6 0.00 0.00 0.00 5 1010.5
20260905195725 91 173 0.9 1.7 0.00 0.00 0.00 5 1010.6
20260905195425 91 6 1.7 2.6 0.00 0.00 0.00 5 1010.7
20260905194825 91 112 0.9 1.7 0.00 0.00 0.00 5 1010.8
20260905194525 91 170 1.7 3.5 0.00 0.00 0.00 5 1010.8
20260905194225 91 0 0.0 0.0 0.00 0.00 0.00 5 1010.8
20260905193925 91 0 0.0 0.0 0.00 0.00 0.00 5 1010.9
20260905193625 91 135 0.9 1.7 0.00 0.00 0.00 5 1011.0
20260905193325 91 137 1.7 1.7 0.00 0.00 0.00 5 1010.9
20260905193025 91 0 0.0 0.0 0.00 0.00 0.00 5 1010.9
20260905192725 91 120 0.9 2.6 0.00 0.00 0.00 5 1010.9
20260905192425 91 26 1.7 2.6 0.00 0.00 0.00 5 1010.9
20260905192125 91 76 1.7 2.6 0.00 0.00 0.00 5 1010.9
20260905191525 91 0 0.0 0.0 0.00 0.00 0.00 5 1010.9
20260905191225 91 97 0.9 1.7 0.00 0.00 0.00 5 1011.0
20260905190925 91 90 0.0 1.7 0.00 0.00 0.00 5 1011.1
20260905190625 92 301 3.5 5.2 0.00 0.00 0.00 5 1011.1
20260905190325 92 319 4.3 5.2 0.00 0.00 0.00 5 1011.1
20260905185725 91 0 0.0 0.0 0.00 0.00 0.00 6 1011.3
20260905185425 91 225 0.9 1.7 0.00 0.00 0.00 5 1011.4
20260905184825 91 22 0.9 2.6 0.00 0.00 0.00 5 1011.5
20260905184525 91 138 0.9 1.7 0.00 0.00 0.00 5 1011.6
20260905184225 90 255 0.9 1.7 0.00 0.00 0.00 6 1011.7
20260905183925 91 10 3.5 4.3 0.00 0.00 0.00 5 1011.7
20260905183625 90 90 1.7 2.6 0.00 0.00 0.00 6 1011.8
20260905183325 91 332 1.7 4.3 0.00 0.00 0.00 5 1011.8
20260905183024 91 124 2.6 2.6 0.00 0.00 0.00 5 1011.8
20260905182725 91 112 1.7 2.6 0.00 0.00 0.00 5 1011.8
20260905182425 91 315 2.6 4.3 0.00 0.00 0.00 5 1011.8
20260905182124 91 313 0.9 2.6 0.00 0.00 0.00 5 1011.9
20260905181524 91 315 3.5 6.1 0.00 0.00 0.00 5 1012.0
20260905181224 91 349 4.3 6.1 0.00 0.00 0.00 5 1011.9
20260905180924 91 322 3.5 4.3 0.00 0.00 0.00 5 1011.9
20260905180624 91 22 1.7 2.6 0.00 0.00 0.00 6 1012.0
20260905180324 91 0 0.0 0.0 0.00 0.00 0.00 6 1011.9
20260905175724 91 0 0.0 0.0 0.00 0.00 0.00 6 1012.1
20260905175424 91 22 1.7 1.7 0.00 0.00 0.00 6 1012.1
20260905174824 90 135 0.9 1.7 0.00 0.00 0.00 6 1012.3
20260905174524 90 42 1.7 2.6 0.00 0.00 0.00 6 1012.3
20260905174224 90 0 0.0 0.0 0.00 0.00 0.00 6 1012.4
20260905173924 90 296 2.6 4.3 0.00 0.00 0.00 6 1012.4
20260905173624 90 40 2.6 5.2 0.00 0.00 0.00 6 1012.4
20260905173324 90 74 1.7 2.6 0.00 0.00 0.00 6 1012.4
20260905173024 90 330 2.6 3.5 0.00 0.00 0.00 6 1012.6
20260905172724 90 9 3.5 4.3 0.00 0.00 0.00 6 1012.6
20260905172424 90 304 4.3 6.1 0.00 0.00 0.00 6 1012.6
20260905172124 90 279 2.6 5.2 0.00 0.00 0.00 6 1012.6
20260905171524 90 277 0.9 2.6 0.00 0.00 0.00 6 1012.7
20260905171224 90 36 2.6 3.5 0.00 0.00 0.00 6 1012.6
20260905170924 90 12 1.7 3.5 0.00 0.00 0.00 6 1012.7
20260905170624 89 0 0.0 0.0 0.00 0.00 0.00 6 1012.8
20260905170324 89 72 0.9 4.3 0.00 0.00 0.00 6 1012.8
20260905165724 88 359 2.6 4.3 0.00 0.00 0.00 6 1012.9
20260905165424 89 325 4.3 6.1 0.00 0.00 0.00 6 1012.9
20260905164824 89 353 3.5 6.1 0.00 0.00 0.00 6 1013.0
20260905164524 88 51 2.6 4.3 0.00 0.00 0.00 6 1013.1
20260905164224 88 292 2.6 6.1 0.00 0.00 0.00 6 1013.2
20260905163924 88 0 0.0 0.0 0.00 0.00 0.00 6 1013.2
20260905163624 88 22 2.6 3.5 0.00 0.00 0.00 6 1013.2
20260905163324 88 0 0.0 0.0 0.00 0.00 0.00 6 1013.2
20260905163024 88 345 2.6 4.3 0.00 0.00 0.00 6 1013.2
20260905162724 88 314 5.2 5.2 0.00 0.00 0.00 6 1013.2
20260905162424 88 294 3.5 4.3 0.00 0.00 0.00 6 1013.3
20260905162124 88 322 2.6 3.5 0.00 0.00 0.00 6 1013.4
20260905161524 89 351 2.6 5.2 0.00 0.00 0.00 6 1013.3
20260905161224 89 0 1.7 3.5 0.00 0.00 0.00 6 1013.3
20260905160924 89 332 1.7 2.6 0.00 0.00 0.00 6 1013.4
20260905160624 89 46 1.7 3.5 0.00 0.00 0.00 6 1013.5
20260905160324 89 296 3.5 5.2 0.00 0.00 0.00 6 1013.5
20260905155724 89 270 1.7 5.2 0.00 0.00 0.00 6 1013.5
20260905155424 89 39 3.5 5.2 0.00 0.00 0.00 6 1013.5
20260905154825 89 22 1.7 3.5 0.00 0.00 0.00 6 1013.6
20260905154525 90 302 4.3 7.0 0.00 0.00 0.00 6 1013.6
20260905154225 90 225 0.0 1.7 0.00 0.00 0.00 6 1013.5
20260905153925 89 296 1.7 2.6 0.00 0.00 0.00 7 1013.6
20260905153625 88 351 2.6 5.2 0.00 0.00 0.00 7 1013.7
20260905153325 87 350 3.5 4.3 0.00 0.00 0.00 7 1013.7
20260905153025 87 337 2.6 3.5 0.00 0.00 0.00 7 1013.8
20260905152725 86 239 1.7 4.3 0.00 0.00 0.00 7 1013.9
20260905152425 86 52 1.7 3.5 0.00 0.00 0.00 7 1013.9
20260905152125 86 270 0.0 1.7 0.00 0.00 0.00 7 1013.9
20260905151525 85 112 0.9 1.7 0.00 0.00 0.00 7 1013.9
20260905151225 85 42 3.5 4.3 0.00 0.00 0.00 7 1013.9
20260905150925 85 28 2.6 3.5 0.00 0.00 0.00 7 1013.9
20260905150625 86 358 1.7 3.5 0.00 0.00 0.00 7 1013.9
20260905150325 85 306 1.7 4.3 0.00 0.00 0.00 7 1013.9
20260905145725 85 307 2.6 3.5 0.00 0.00 0.00 7 1014.0
20260905145425 85 313 3.5 4.3 0.00 0.00 0.00 7 1014.0
20260905144825 85 0 0.0 0.0 0.00 0.00 0.00 7 1014.0
20260905144525 85 321 0.9 3.5 0.00 0.00 0.00 7 1014.1
20260905144225 85 323 4.3 5.2 0.00 0.00 0.00 7 1014.1
20260905143925 85 319 3.5 6.1 0.00 0.00 0.00 7 1014.1
20260905143625 84 0 0.0 0.0 0.00 0.00 0.00 7 1014.2
20260905143325 84 247 0.0 1.7 0.00 0.00 0.00 7 1014.1
20260905143025 86 292 0.9 2.6 0.00 0.00 0.00 7 1014.0
20260905142725 86 0 0.0 0.0 0.00 0.00 0.00 7 1014.0
20260905142425 85 0 0.0 0.0 0.00 0.00 0.00 7 1014.1
20260905142124 85 0 0.0 0.0 0.00 0.00 0.00 7 1014.1
20260905141524 84 292 0.9 2.6 0.00 0.00 0.00 8 1014.2
20260905141224 84 315 1.7 2.6 0.00 0.00 0.00 7 1014.2
20260905140924 83 315 0.0 1.7 0.00 0.00 0.00 8 1014.3
20260905140624 82 337 1.7 5.2 0.00 0.00 0.00 8 1014.4
20260905140324 82 299 3.5 5.2 0.00 0.00 0.00 8 1014.4
20260905135724 81 317 2.6 3.5 0.00 0.00 0.00 8 1014.5
20260905135424 81 304 1.7 2.6 0.00 0.00 0.00 8 1014.5
20260905134824 80 292 1.7 5.2 0.00 0.00 0.00 8 1014.6
20260905134524 80 301 3.5 6.1 0.00 0.00 0.00 8 1014.7
20260905134224 79 345 0.9 2.6 0.00 0.00 0.00 8 1014.7
20260905133924 79 333 2.6 3.5 0.00 0.00 0.00 9 1014.7
20260905133624 78 0 0.0 0.0 0.00 0.00 0.00 9 1014.8
20260905133324 77 322 0.9 3.5 0.00 0.00 0.00 9 1014.8
20260905133024 76 0 0.0 0.0 0.00 0.00 0.00 9 1015.0
20260905132724 76 0 0.0 0.0 0.00 0.00 0.00 9 1015.0
20260905132424 75 180 1.7 3.5 0.00 0.00 0.00 9 1015.1
20260905132124 75 180 0.9 3.5 0.00 0.00 0.00 9 1015.2
20260905131524 74 0 0.0 0.0 0.00 0.00 0.00 9 1015.3
20260905131224 74 0 0.0 0.0 0.00 0.00 0.00 9 1015.4
20260905130924 74 0 0.0 0.0 0.00 0.00 0.00 9 1015.4
20260905130624 73 0 0.0 0.0 0.00 0.00 0.00 9 1015.4
20260905130324 73 0 0.0 0.0 0.00 0.00 0.00 9 1015.5
20260905125724 72 0 0.0 0.0 0.00 0.00 0.00 9 1015.6
20260905125424 72 0 0.0 0.0 0.00 0.00 0.00 9 1015.6
20260905124824 72 0 0.0 0.0 0.00 0.00 0.00 9 1015.6
20260905124524 72 0 0.0 0.0 0.00 0.00 0.00 9 1015.6
20260905124224 72 0 0.0 0.0 0.00 0.00 0.00 9 1015.6
20260905123924 71 0 0.0 0.0 0.00 0.00 0.00 9 1015.6
20260905123624 71 0 0.0 0.0 0.00 0.00 0.00 9 1015.6
20260905123324 71 0 0.0 0.0 0.00 0.00 0.00 9 1015.7
20260905123024 70 0 0.0 0.0 0.00 0.00 0.00 9 1015.7
20260905122724 70 0 0.0 0.0 0.00 0.00 0.00 9 1015.6
20260905122424 70 0 0.0 0.0 0.00 0.00 0.00 9 1015.6
20260905122124 70 0 0.0 0.0 0.00 0.00 0.00 9 1015.5
20260905121524 70 0 0.0 0.0 0.00 0.00 0.00 9 1015.5
20260905121224 69 0 0.0 0.0 0.00 0.00 0.00 9 1015.5
20260905120924 69 0 0.0 0.0 0.00 0.00 0.00 9 1015.5
20260905120624 69 0 0.0 0.0 0.00 0.00 0.00 9 1015.4
20260905120324 69 0 0.0 0.0 0.00 0.00 0.00 9 1015.4
20260905115724 69 0 0.0 0.0 0.00 0.00 0.00 9 1015.4
20260905115424 69 0 0.0 0.0 0.00 0.00 0.00 9 1015.4
20260905114824 69 0 0.0 0.0 0.00 0.00 0.00 9 1015.4
20260905114524 69 0 0.0 0.0 0.00 0.00 0.00 9 1015.4
20260905114224 69 0 0.0 0.0 0.00 0.00 0.00 9 1015.4